Location: Les Jeannots
(43.2262°N, 5.5774°E)
Time: 19:06:03
(UTC+00:00)

USA 245 - Pass Details

Date: 05 July 2020
Orbit: 270 x 1010 km, 97.9° (Epoch: 10 August)

Event Time Altitude Azimuth Distance (km) Brightness Sun altitude
Exits shadow 21:07:52 18° 198° (SSW) 1,132 4.6 -15.1°
Maximum altitude 21:09:58 42° 263° (W) 686 4.0 -15.4°
Drops below altitude 10° 21:13:45 10° 335° (NNW) 1,861 7.3 -15.8°
Sets 21:16:17 0° 342° (NNW) 2,910 8.5 -16.0°
